Regional Weather Roundup
Issued by NWS

Home | Current Version | Previous Version | Graphics & Text | Print | Product List | Glossary Off
Versions: 1 2 3 4 5 6 7 8 9 10 11 12 13 14 15 16 17 18 19 20 21 22 23 24 25 26 27 28 29 30 31 32 33 34 35 36 37 38 39 40 41 42 43 44 45 46 47 48 49 50

000
ASUS43 KLSX 022107
RWRMO

WEATHER SUMMARY FOR MISSOURI
NATIONAL WEATHER SERVICE SPRINGFIELD MO
300 PM CST MON MAR 02 2015

NOTE: "FAIR" INDICATES FEW OR NO CLOUDS BELOW 12,000 FEET WITH NO
       SIGNIFICANT WEATHER AND/OR OBSTRUCTIONS TO VISIBILITY.
       CURRENT SKY AND/OR WEATHER CONDITIONS ARE NOT AVAILABLE FOR
       CHILLICOTHE AND FARMINGTON.

MOZ001>031-035>038-043-044-053-054-022200-
...NORTHERN AND WESTERN MISSOURI...

CITY           SKY/WX    TMP DP  RH WIND       PRES   REMARKS
KANSAS CTY INT CLOUDY    37  18  46 SE16      30.29F WCI  28
KANSAS C DTWN  PTSUNNY   39  17  41 SE13G18   30.31F
LEE`S SUMMIT   CLOUDY    35  19  52 SE13      30.31F WCI  26
ST JOSEPH      PTSUNNY   41  20  43 SE15      30.29F
CHILLICOTHE      N/A     38  21  50 SE10      30.36F
KIRKSVILLE     PTSUNNY   34  23  64 SE8       30.37F WCI  27

$$
MOZ066>068-077>081-088>096-101>105-022200-
...SOUTHWEST MISSOURI...

CITY           SKY/WX    TMP DP  RH WIND       PRES   REMARKS
SPRINGFIELD    CLOUDY    37  20  50 SE12      30.29F WCI  29
JOPLIN         CLOUDY    37  22  54 SE10      30.29F WCI  30

$$
MOZ032>034-039>042-045>050-055>058-069>072-022200-
...CENTRAL MISSOURI...

CITY           SKY/WX    TMP DP  RH WIND       PRES   REMARKS
COLUMBIA       MOSUNNY   36  18  48 SE9       30.35F WCI  29
JEFFERSON CITY PTSUNNY   37  16  42 E13       30.37F WCI  29
ROLLA          CLOUDY    34  18  52 E9        30.34F WCI  27
SEDALIA        PTSUNNY   35  20  54 E10       30.34F WCI  27
WHITEMAN AFB   MOSUNNY   35  19  52 SE8       30.31F WCI  29
WARRENSBURG    PTSUNNY   36  21  55 E10       30.33F WCI  28
OSAGE BEACH    CLOUDY    37  18  44 E8        30.34F

$$
MOZ051-052-059>065-022200-
...EAST CENTRAL MISSOURI...

CITY           SKY/WX    TMP DP  RH WIND       PRES   REMARKS
ST LOUIS INTL  PTSUNNY   35  17  47 SE9       30.44F WCI  28
SPIRIT OF STL  MOSUNNY   35  16  45 SE7       30.41F WCI  29
ST CHARLES     SUNNY     33  21  61 E12       30.43F WCI  24

$$
MOZ072>076-082>087-097>100-106>115-022200-
...SOUTH CENTRAL AND SOUTHEAST MISSOURI...

CITY           SKY/WX    TMP DP  RH WIND       PRES   REMARKS
CAPE GIRARDEAU MOSUNNY   40  21  46 NE8       30.40F
FARMINGTON     PTSUNNY   36  18  48 SE8       30.42F WCI  29
POPLAR BLUFF   PTSUNNY   36  20  52 NE7       30.40S
WEST PLAINS    CLOUDY    37  19  48 SE7       30.33F

$$


USA.gov is the U.S. government's official web portal to all federal, state and local government web resources and services.